EDT,Max TemperatureF,Mean TemperatureF,Min TemperatureF,Max Dew PointF,MeanDew PointF,Min DewpointF,Max Humidity, Mean Humidity, Min Humidity, Max Sea Level PressureIn, Mean Sea Level PressureIn, Min Sea Level PressureIn, Max VisibilityMiles, Mean VisibilityMiles, Min VisibilityMiles, Max Wind SpeedMPH, Mean Wind SpeedMPH, Max Gust SpeedMPH,PrecipitationIn, CloudCover, Events, WindDirDegrees
2013-10-1,73,57,41,63,55,41,100,85,59,29.94,29.87,29.81,10,9,1,17,4,25,0.00,2,,213
2013-10-2,73,56,38,61,44,32,100,69,23,30.10,30.04,29.89,10,8,0,12,5,21,0.00,0,Fog,270
2013-10-3,76,56,35,66,52,34,100,87,51,30.10,30.00,29.90,10,9,2,12,3,17,0.00,5,Rain,122
2013-10-4,59,57,55,60,58,56,100,100,100,30.11,30.02,29.94,10,6,1,13,6,,0.00,8,Rain,74
2013-10-5,61,58,55,59,57,56,100,99,92,30.12,30.02,29.87,10,5,1,15,9,20,0.00,8,Rain,91
2013-10-6,68,59,50,68,60,50,100,99,88,29.87,29.72,29.65,10,8,3,12,5,16,0.00,7,Rain,191
2013-10-7,58,48,38,50,45,38,100,85,57,30.08,29.77,29.60,10,9,0,17,6,26,0.00,5,Fog-Rain,263
2013-10-8,68,50,31,48,41,31,100,78,44,30.24,30.19,30.08,10,8,0,14,2,17,0.00,1,Fog,173
2013-10-9,73,56,39,48,44,39,100,69,35,30.29,30.25,30.21,10,10,10,12,4,,0.00,0,,185
2013-10-10,72,52,33,48,39,32,100,76,28,30.24,30.20,30.15,10,9,0,9,1,,0.00,0,Fog,158
2013-10-11,71,52,33,50,39,33,100,74,32,30.18,30.13,30.09,10,8,0,10,2,,0.00,2,Fog,125
2013-10-12,76,56,35,60,46,35,100,72,36,30.09,30.05,29.99,10,10,1,17,3,25,0.00,1,Rain,171
2013-10-13,61,53,45,59,46,43,93,79,62,30.39,30.25,30.06,10,10,10,14,7,21,0.00,5,Rain,281
2013-10-14,58,42,27,45,35,28,100,76,35,30.45,30.38,30.29,10,8,0,9,2,,0.00,0,Fog,62
2013-10-15,61,44,28,58,43,27,100,91,63,30.28,30.02,29.75,10,8,0,15,3,22,0.00,5,Fog-Rain,141
2013-10-16,57,52,48,57,50,46,100,97,86,29.86,29.76,29.72,10,7,2,13,6,17,0.00,8,Rain,235
2013-10-17,50,46,41,48,44,40,100,93,68,29.87,29.81,29.75,10,9,1,8,2,,0.00,8,Rain,256
2013-10-18,58,44,31,46,40,31,100,86,54,29.82,29.79,29.75,10,9,1,12,4,22,0.00,4,Rain,234
2013-10-19,48,38,29,45,39,30,100,88,54,29.80,29.73,29.68,10,10,4,15,5,21,0.00,6,Rain,261
2013-10-20,53,41,29,44,36,30,100,82,42,29.83,29.78,29.70,10,8,0,10,4,18,0.00,5,Fog-Rain,199
2013-10-21,48,40,33,48,39,26,99,85,68,29.78,29.73,29.67,10,10,4,18,8,26,0.00,7,Rain-Snow,235
2013-10-22,43,37,31,39,33,26,100,89,70,29.86,29.78,29.69,10,8,1,17,9,24,0.00,7,Rain-Snow,262
2013-10-23,41,34,28,36,32,28,100,96,75,29.87,29.84,29.82,10,7,0,20,4,28,0.00,7,Fog-Snow,260
2013-10-24,44,37,30,37,34,31,100,95,72,30.12,29.97,29.85,10,8,1,15,5,21,0.00,7,Rain-Snow,273
2013-10-25,43,38,33,37,31,24,100,80,51,30.23,30.12,29.83,10,10,4,14,6,24,0.00,7,Rain-Snow,236
2013-10-26,45,40,34,41,36,32,99,87,64,29.94,29.75,29.62,10,8,2,18,12,31,0.00,7,Rain-Snow,265
2013-10-27,48,40,33,35,33,31,100,79,52,29.96,29.93,29.87,10,10,4,13,5,18,0.00,7,Snow,231
2013-10-28,41,33,25,36,27,20,94,69,42,30.45,30.28,29.96,10,10,10,15,7,20,0.00,5,,23
2013-10-29,41,28,16,34,23,14,98,79,45,30.46,30.38,30.23,10,10,7,8,1,,0.00,3,Snow,149
2013-10-30,58,46,35,46,38,33,97,78,42,30.21,30.09,29.88,10,10,4,9,2,,0.00,5,Rain,146
2013-10-31,59,54,48,59,54,46,100,99,93,29.86,29.48,29.03,10,6,0,9,3,,0.00,8,Fog-Rain,156